Regional Weather Roundup
Issued by NWS Jackson, KY

Home | Current Version | Previous Version | Graphics & Text | Print | Product List | Glossary Off
Versions: 1 2 3 4 5 6 7 8 9 10 11 12 13 14 15 16 17 18 19 20 21 22 23 24 25 26 27

000
ASUS43 KJKL 252010
RWRJKL

EAST KENTUCKY HOURLY WEATHER ROUNDUP
NATIONAL WEATHER SERVICE JACKSON KY
400 PM EDT TUE APR 25 2017

NOTE: "FAIR" INDICATES FEW OR NO CLOUDS BELOW 12,000 FEET WITH
NO SIGNIFICANT WEATHER AND/OR OBSTRUCTIONS TO VISIBILITY.

* THESE REPORTS ARE NOT UNDER NWS QUALITY CONTROL AND MAY NOT
  REPORT WEATHER SUCH AS PRECIPITATION AND FOG.

KYZ079-080-083-085-087-088-110-112-115-119-120-252100
...EASTERN KENTUCKY...

CITY           SKY/WX    TMP DP  RH WIND       PRES   REMARKS
JACKSON        PTSUNNY   71  55  56 W5        29.74F
LONDON         CLOUDY    73  53  49 VRB3      29.74F
SOMERSET*      CLOUDY    68  52  56 W7        29.77S
MONTICELLO*    CLOUDY    71  56  58 W10       29.77F
WILLIAMSBURG*  CLOUDY    72  55  56 SW12      29.74F
MIDDLESBORO*   CLOUDY    71  56  59 CALM      29.75S
HARLAN APT*    CLOUDY    70  52  52 SW3       29.75F
BIG SANDY APT* CLOUDY    71  58  65 CALM      29.75F
MOREHEAD APT*  MOCLDY    75  54  46 SW5       29.74F
$$

KYZ035-036-041-042-044-050-067-078-099-252100
...CENTRAL KENTUCKY...

CITY           SKY/WX    TMP DP  RH WIND       PRES   REMARKS
MT STERLING*   MOSUNNY   73  57  56 CALM      29.75F
FLEMING/MASON* SUNNY     73  55  53 CALM      29.73F
DANVILLE*      PTSUNNY   72  54  53 W5        29.75F
LEXINGTON      PTSUNNY   71  55  56 S5        29.74F
FRANKFORT      PTSUNNY   72  54  53 CALM      29.72F
LOUISVILLE     PTSUNNY   75  55  49 SW6       29.71F
GLASGOW*       PTSUNNY   75  55  51 E3        29.74F
BOWLING GREEN  MOSUNNY   76  58  53 VRB5      29.73F
$$

KYZ091>093-OHZ055-061-077-WVZ005-015-034-035-042-252100
...SOUTHERN OHIO/WEST VIRGINIA...

CITY           SKY/WX    TMP DP  RH WIND       PRES   REMARKS
COVINGTON      PTSUNNY   74  58  57 S6        29.72F
COLUMBUS       CLOUDY    76  55  48 SE7       29.73F
DAYTON         PTSUNNY   74  55  51 S8        29.72F
WILMINGTON     MOSUNNY   74  58  57 S3        29.73F
HUNTINGTON     PTSUNNY   70  56  61 VRB6      29.73F
CHARLESTON     CLOUDY    65  57  75 CALM      29.75F
PINEVILLE*     CLOUDY    68  56  66 MISG      29.79F
BECKLEY        CLOUDY    62  54  74 N7        29.77S
BLUEFIELD      CLOUDY    60  52  74 CALM      29.78F
$$

VAZ002-007-008-TNZ017-027-036-066-071-252100
...SOUTHWEST VIRGINIA/EAST TENNESSEE...

CITY           SKY/WX    TMP DP  RH WIND       PRES   REMARKS
WISE*          CLOUDY    64  52  63 CALM      29.79S
JONESVILLE*    CLOUDY    68  55  64 CALM      29.77F
ABINGDON*      CLOUDY    66  58  76 W6        29.76F
BRISTOL        PTSUNNY   66  56  70 SW9       29.75F
KNOXVILLE      PTSUNNY   71  54  54 E3        29.74F
OAK RIDGE      CLOUDY    73  54  51 VRB3      29.75F
CROSSVILLE     PTSUNNY   71  54  54 NW7       29.78F
NASHVILLE      PTSUNNY   75  56  51 S12       29.74F
$$

...KEY TO REMARKS...
VSB - VISIBILITY IN MILES
WCI - WIND CHILL INDEX
HX  - HEAT INDEX

$$




USA.gov is the U.S. government's official web portal to all federal, state and local government web resources and services.